Regional Weather Roundup
Issued by NWS

Home | Current Version | Previous Version | Text Only | Print | Product List | Glossary Off
Versions: 1 2 3 4 5 6 7 8 9 10 11 12 13 14 15 16 17 18 19 20 21 22 23 24 25 26 27 28 29 30 31 32 33 34 35 36 37 38 39 40 41 42 43 44 45 46 47 48 49 50

000
ASUS43 KFSD 240102
RWRSD

WEATHER ROUNDUP FOR SOUTH DAKOTA
NATIONAL WEATHER SERVICE SIOUX FALLS SD
800 PM CDT MON OCT 23 2017

NOTE: "FAIR" INDICATES FEW OR NO CLOUDS BELOW 12,000 FEET WITH NO
SIGNIFICANT WEATHER AND/OR OBSTRUCTIONS TO VISIBILITY.


SDZ001>005-009-010-012>017-240200-
NORTHWEST AND NORTH CENTRAL SOUTH DAKOTA

CITY           SKY/WX    TMP DP  RH WIND       PRES   REMARKS
BUFFALO          N/A     50  23  34 NW29G38   30.31R
FAITH            N/A     49  26  41 NW17      30.30R
MOBRIDGE       CLOUDY    54  28  36 N20G31    30.18R
$$

SDZ012>016-024>037-041>051-057-063-072>074-240200-
SOUTHWEST AND SOUTH CENTRAL SOUTH DAKOTA

CITY           SKY/WX    TMP DP  RH WIND       PRES   REMARKS
RAPID CTY ARPT CLEAR     46  22  38 NW15      30.38R
PIERRE         CLOUDY    53  29  39 NW23      30.22R
CUSTER         CLEAR     37  22  54 NW8       30.42R
ELLSWORTH AFB  CLEAR     48  21  35 NW18      30.37R
PHILIP         CLEAR     53  22  29 NW22G30   30.29R
PINE RIDGE     PTCLDY    50  16  25 NW9       30.38R
SPEARFISH      FAIR      46  19  34 NW18      30.42R
WINNER         CLOUDY    54  28  36 NW17      30.23R
$$

SDZ004>011-016>023-039-040-240200-
NORTHEAST SOUTH DAKOTA

CITY           SKY/WX    TMP DP  RH WIND       PRES   REMARKS
ABERDEEN       CLOUDY    50  36  58 NW26G32   30.13R
WATERTOWN      MOCLDY    48  35  60 NW22G32   30.03S
BROOKINGS      CLOUDY    50  35  56 NW25G33   30.02S
SISSETON         N/A     49  38  65 NW18      30.02R
$$

SDZ017-020-022-023-036>040-048>070-240200-
SOUTHEAST SOUTH DAKOTA

CITY           SKY/WX    TMP DP  RH WIND       PRES   REMARKS
SIOUX FALLS    CLOUDY    52  34  50 NW16G24   30.03F
HURON          CLOUDY    52  33  48 NW18G26   30.11R
MITCHELL       CLOUDY    53  34  48 NW16      30.12R
YANKTON        MOCLDY    53  32  44 NW15      30.10R
$$

ABBREVIATIONS USED IN REMARKS
   TC - TEMPERATURE IN CELSIUS
  WCI - WIND CHILL INDEX
   HX - HEAT INDEX
  VSB - VISIBILITY




USA.gov is the U.S. government's official web portal to all federal, state and local government web resources and services.